Hourly Weather Roundup
Issued by NWS Central Illinois

Home | Current Version | Previous Version | Text Only | Print | Product List | Glossary On
Versions: 1 2 3 4 5 6 7 8 9 10 11 12 13 14 15 16 17 18 19 20 21 22 23 24 25 26 27 28 29 30 31 32 33 34 35 36 37 38 39 40 41 42 43 44 45 46 47 48 49 50
000
NZUS43 KILX 111710
HWRILX

Area Weather Roundup
National Weather Service Lincoln IL
1100 AM CST MON DEC 11 2017

NOTE:  "FAIR" indicates few or no clouds below 12,000 feet, with
       no sigificant weather and/or obstructions to visibility.


CITY           SKY/WX    TMP DP  RH WIND       PRES   REMARKS
Bloomington    MOSUNNY   42  28  57 S20       29.74F WCI  33
Champaign      SUNNY     45  28  51 S22       29.80F
Danville       CLOUDY    39  26  59 S16       29.80F WCI  31
Decatur        SUNNY     46  28  49 S17G26    29.78
Effingham      CLOUDY    46  31  56 S10G16    29.87F
Flora          PTSUNNY   49  31  50 S21G26    29.87F
Galesburg      CLOUDY    41  30  66 S8        29.71F
Jacksonville   CLOUDY    45  26  46 SW16G24   29.75F
Lacon          CLOUDY    40  27  59 SE6       29.72F
Lawrenceville  MOSUNNY   43  31  62 S16       29.91F
Litchfield     SUNNY     46  30  53 S16G25    29.79F
$$


CITY           SKY/WX    TMP DP  RH WIND       PRES   REMARKS
Lincoln        MOSUNNY   45  30  57 S15       29.74F
Macomb         CLOUDY    41  27  57 SW12      29.73F WCI  34
Mattoon        MOSUNNY   43  29  57 S15G23    29.83F
Mt Carmel AP   PTSUNNY   42  29  61 S17       29.93F WCI  33
Olney-Noble AP MOSUNNY   45  28  50 S13G23    29.89F
Paris AP       MOSUNNY   40  29  65 S15       29.87F WCI  31
Peoria         CLOUDY    42  28  57 S12       29.72F
Pontiac        MOSUNNY   43  28  56 S15       29.76F
Rantoul        SUNNY     45  30  56 S22       29.79F
Robinson       SUNNY     40  29  64 S12       29.91F WCI  33
Springfield    PTSUNNY   48  29  47 S17G26    29.76F
Taylorville    SUNNY     47  29  49 S20G25    29.77F
$$

...REGIONAL REPORTS...


CITY           SKY/WX    TMP DP  RH WIND       PRES   REMARKS
Chicago O`Hare CLOUDY    33  23  66 S10       29.78F WCI  25
Kankakee       MOSUNNY   36  25  64 S12G17    29.82F WCI  27
Moline         SUNNY     43  27  53 VRB5      29.71F
Mount Sterling MOSUNNY   44  25  47 SW14G21   29.74F
Mount Vernon   SUNNY     52  32  46 S20G25    29.87F
Pittsfield     CLOUDY    47  27  44 SW14      29.76F
Quincy         CLOUDY    45  24  43 W17G24    29.76F
Rockford       CLOUDY    34  25  69 S12       29.76F WCI  25
$$


CITY           SKY/WX    TMP DP  RH WIND       PRES   REMARKS
Burlington     CLOUDY    44  26  49 W10G24    29.70F
Cedar Rapids   PTSUNNY   39  26  59 W10       29.69F WCI  32
Des Moines     CLOUDY    45  30  55 NW26G39   29.80R
Kirksville     CLOUDY    46  24  42 W20G26    29.81R
Ottumwa        SUNNY     46  24  42 NW29G40   29.75R
St Louis       PTSUNNY   53  24  32 SW17      29.81F
$$


CITY           SKY/WX    TMP DP  RH WIND       PRES   REMARKS
Terre Haute    MOSUNNY   41  26  55 S13       29.90F WCI  34
Evansville     MOSUNNY   47  32  56 SW14      29.98F
Indianapolis   PTSUNNY   36  25  64 S14       29.90F WCI  27
Lafayette      PTSUNNY   34  26  72 S8        29.86F WCI  27
Madison        FLURRIES  29  24  82 S12       29.74F WCI  19
Milwaukee      PTSUNNY   31  25  78 S7        29.79F WCI  24
$$





USA.gov is the U.S. government's official web portal to all federal, state and local government web resources and services.